KC3BAN-13 Weather Reports


time (UTC)temp
C
wind
direction
speed
KPH
gust
KPH
rain 1hr
cm
rain 24hr
cm
rain mn
cm
humidity
%
barometer
mb
20260505055014 15 180 0.0 0.0 0.00 0.00 0.00 65 1003.7
20260505054726 15 180 0.0 0.0 0.00 0.00 0.00 65 1003.6
20260505054003 15 180 0.0 0.0 0.00 0.00 0.00 64 1003.6
20260505053456 15 180 0.0 0.0 0.00 0.00 0.00 63 1003.7
20260505052950 16 180 0.0 0.0 0.00 0.00 0.00 63 1003.7
20260505052444 16 180 0.0 1.6 0.00 0.00 0.00 62 1003.7
20260505051938 16 180 0.0 8.0 0.00 0.00 0.00 62 1003.8
20260505051432 16 181 1.6 8.0 0.00 0.00 0.00 62 1003.8
20260505050927 16 257 1.6 6.4 0.00 0.00 0.00 62 1003.8
20260505050420 16 274 0.0 6.4 0.00 0.00 0.00 63 1003.8
20260505041321 15 214 0.0 1.6 0.00 0.00 0.00 64 1003.6
20260505040815 15 214 0.0 1.6 0.00 0.00 0.00 64 1003.6
20260505040308 15 214 0.0 1.6 0.00 0.00 0.00 64 1003.6
20260505035801 15 223 0.0 1.6 0.00 0.00 0.00 64 1003.5
20260505035257 15 223 0.0 1.6 0.00 0.00 0.00 65 1003.5
20260505034750 15 223 0.0 1.6 0.00 0.00 0.00 65 1003.5
20260505034501 15 240 0.0 0.0 0.00 0.00 0.00 66 1003.6
20260505033232 15 240 0.0 1.6 0.00 0.00 0.00 66 1003.5
20260505032727 15 240 0.0 0.0 0.00 0.00 0.00 67 1003.5
20260505032219 15 240 0.0 0.0 0.00 0.00 0.00 67 1003.5
20260505031713 15 240 0.0 3.2 0.00 0.00 0.00 68 1003.5
20260505031207 15 240 0.0 3.2 0.00 0.00 0.00 69 1003.5
20260505030701 14 245 0.0 1.6 0.00 0.00 0.00 70 1003.5
20260505030154 14 193 0.0 0.0 0.00 0.00 0.00 71 1003.6
20260505025647 15 193 0.0 0.0 0.00 0.00 0.00 72 1003.6
20260505025141 15 193 0.0 0.0 0.00 0.00 0.00 72 1003.6
20260505024636 15 193 0.0 0.0 0.00 0.00 0.00 72 1003.6
20260505024129 15 193 0.0 0.0 0.00 0.00 0.00 71 1003.5
20260505023849 15 193 0.0 1.6 0.00 0.00 0.00 69 1003.6
20260505023336 15 193 0.0 1.6 0.00 0.00 0.00 68 1003.4
20260505022611 15 193 0.0 0.0 0.00 0.00 0.00 66 1003.6
20260505022107 15 193 0.0 0.0 0.00 0.00 0.00 66 1003.5
20260505021600 15 193 0.0 0.0 0.00 0.00 0.00 64 1003.5
20260505021054 15 193 0.0 0.0 0.00 0.00 0.00 64 1003.4
20260505020547 15 193 0.0 0.0 0.00 0.00 0.00 64 1003.4
20260505020041 15 193 0.0 0.0 0.00 0.00 0.00 63 1003.3
20260505015533 16 193 0.0 0.0 0.00 0.00 0.00 63 1003.4
20260505015027 16 193 0.0 0.0 0.00 0.00 0.00 63 1003.4
20260505014521 15 193 0.0 0.0 0.00 0.00 0.00 63 1003.4
20260505014016 15 193 0.0 0.0 0.00 0.00 0.00 65 1003.4
20260505013510 15 193 0.0 0.0 0.00 0.00 0.00 66 1003.3
20260505013004 15 193 0.0 0.0 0.00 0.00 0.00 68 1003.3
20260505012457 15 193 0.0 0.0 0.00 0.00 0.00 69 1003.3
20260505011952 15 193 0.0 0.0 0.00 0.00 0.00 70 1003.2
20260505011446 15 193 0.0 0.0 0.00 0.00 0.00 70 1003.1
20260505010940 15 193 0.0 0.0 0.00 0.00 0.00 70 1003.1
20260505010433 16 193 0.0 0.0 0.00 0.00 0.00 70 1003.0
20260505005927 16 193 0.0 0.0 0.00 0.00 0.00 70 1003.0
20260505005421 16 193 0.0 0.0 0.00 0.00 0.00 70 1002.9
20260505004916 16 193 0.0 0.0 0.00 0.00 0.00 70 1002.9
20260505004409 16 193 0.0 0.0 0.00 0.00 0.00 70 1002.9
20260505003903 16 193 0.0 0.0 0.00 0.00 0.00 69 1002.9
20260505003357 16 193 0.0 0.0 0.00 0.00 0.00 68 1002.9
20260505002851 17 193 0.0 0.0 0.00 0.00 0.00 67 1002.9
20260505002346 17 193 0.0 0.0 0.00 0.00 0.00 67 1002.9
20260505001839 17 193 0.0 0.0 0.00 0.00 0.00 67 1002.9
20260505001333 17 193 0.0 0.0 0.00 0.00 0.00 66 1002.9
20260505000828 17 193 0.0 0.0 0.00 0.00 0.00 65 1003.0
20260505000322 17 193 0.0 0.0 0.00 0.00 0.00 63 1002.9
20260504235817 18 193 0.0 0.0 0.00 0.00 0.00 62 1002.8
20260504235535 18 193 0.0 0.0 0.00 0.00 0.00 61 1002.9
20260504234804 18 193 0.0 0.0 0.00 0.00 0.00 60 1002.9
20260504234257 18 193 0.0 0.0 0.00 0.00 0.00 59 1002.8
20260504234011 19 193 0.0 0.0 0.00 0.00 0.00 57 1002.7
20260504233511 20 193 0.0 0.0 0.00 0.00 0.00 56 1002.7
20260504232739 20 193 0.0 0.0 0.00 0.00 0.00 55 1002.6
20260504232233 21 193 0.0 0.0 0.00 0.00 0.00 52 1002.6
20260504231727 21 193 0.0 0.0 0.00 0.00 0.00 51 1002.6
20260504231448 22 193 0.0 0.0 0.00 0.00 0.00 49 1002.7
20260504230717 22 193 0.0 0.0 0.00 0.00 0.00 47 1002.7
20260504230427 22 193 0.0 0.0 0.00 0.00 0.00 48 1002.7
20260504225703 22 193 0.0 0.0 0.00 0.00 0.00 48 1002.7
20260504225158 22 193 0.0 0.0 0.00 0.00 0.00 48 1002.6
20260504224651 22 193 0.0 0.0 0.00 0.00 0.00 48 1002.6
20260504224147 22 288 0.0 1.6 0.00 0.00 0.00 46 1002.6
20260504223639 22 290 0.0 1.6 0.00 0.00 0.00 46 1002.6
20260504223133 22 273 0.0 3.2 0.00 0.00 0.00 45 1002.7
20260504222627 22 303 0.0 3.2 0.00 0.00 0.00 45 1002.7
20260504222346 22 89 0.0 4.8 0.00 0.00 0.00 44 1002.6
20260504221617 23 49 0.0 3.2 0.00 0.00 0.00 44 1002.6
20260504221109 23 74 0.0 3.2 0.00 0.00 0.00 44 1002.6
20260504220603 23 147 0.0 3.2 0.00 0.00 0.00 43 1002.7
20260504220057 23 97 1.6 3.2 0.00 0.00 0.00 43 1002.6
20260504215551 23 240 1.6 6.4 0.00 0.00 0.00 44 1002.6
20260504215047 23 253 0.0 6.4 0.00 0.00 0.00 43 1002.7
20260504214539 23 113 1.6 6.4 0.00 0.00 0.00 45 1002.7
20260504214256 23 60 1.6 6.4 0.00 0.00 0.00 42 1002.7
20260504213527 23 128 0.0 6.4 0.00 0.00 0.00 41 1002.8
20260504213021 24 294 1.6 9.7 0.00 0.00 0.00 42 1002.7
20260504212516 24 255 1.6 9.7 0.00 0.00 0.00 42 1002.7
20260504212230 25 228 0.0 4.8 0.00 0.00 0.00 40 1002.7
20260504211504 25 16 0.0 3.2 0.00 0.00 0.00 41 1002.7
20260504210958 25 5 0.0 3.2 0.00 0.00 0.00 40 1002.7
20260504210451 25 78 0.0 4.8 0.00 0.00 0.00 44 1002.7
20260504205946 25 3 1.6 6.4 0.00 0.00 0.00 42 1002.6
20260504205440 25 79 1.6 6.4 0.00 0.00 0.00 40 1002.7
20260504204934 26 114 0.0 3.2 0.00 0.00 0.00 39 1002.7
20260504204427 26 277 1.6 8.0 0.00 0.00 0.00 43 1002.9
20260504204138 26 85 1.6 8.0 0.00 0.00 0.00 36 1002.8
20260504203416 26 230 1.6 8.0 0.00 0.00 0.00 37 1002.8
20260504202909 26 148 1.6 9.7 0.00 0.00 0.00 35 1002.8
20260504202405 26 304 1.6 9.7 0.00 0.00 0.00 31 1002.9
20260504201857 26 255 3.2 9.7 0.00 0.00 0.00 35 1002.9
20260504201351 26 212 1.6 9.7 0.00 0.00 0.00 35 1003.0
20260504200846 26 144 1.6 9.7 0.00 0.00 0.00 34 1003.0
20260504200340 25 222 3.2 14.5 0.00 0.00 0.00 37 1003.1
20260504195833 25 221 3.2 14.5 0.00 0.00 0.00 30 1003.2
20260504195328 25 235 4.8 12.9 0.00 0.00 0.00 35 1003.3
20260504194822 25 216 4.8 17.7 0.00 0.00 0.00 32 1003.4
20260504194318 25 240 4.8 17.7 0.00 0.00 0.00 35 1003.4
20260504193810 25 247 3.2 9.7 0.00 0.00 0.00 32 1003.5
20260504193304 25 32 3.2 9.7 0.00 0.00 0.00 35 1003.5
20260504192758 25 65 3.2 12.9 0.00 0.00 0.00 36 1003.7
20260504192510 25 169 4.8 17.7 0.00 0.00 0.00 33 1003.8
20260504191747 25 199 4.8 17.7 0.00 0.00 0.00 32 1003.9
20260504191240 25 188 3.2 9.7 0.00 0.00 0.00 35 1003.9
20260504190735 25 108 1.6 9.7 0.00 0.00 0.00 35 1003.9
20260504190454 25 107 3.2 17.7 0.00 0.00 0.00 36 1003.9
20260504185734 24 187 4.8 17.7 0.00 0.00 0.00 36 1004.0
20260504185235 25 79 4.8 17.7 0.00 0.00 0.00 35 1004.2
20260504184234 24 139 3.2 14.5 0.00 0.00 0.00 34 1004.2
20260504183734 24 227 1.6 12.9 0.00 0.00 0.00 36 1004.4
20260504183455 24 305 3.2 11.3 0.00 0.00 0.00 36 1004.4
20260504182735 24 136 3.2 14.5 0.00 0.00 0.00 39 1004.4
20260504182235 24 235 3.2 14.5 0.00 0.00 0.00 37 1004.5
20260504181734 23 227 3.2 9.7 0.00 0.00 0.00 34 1004.6
20260504181234 23 236 4.8 16.1 0.00 0.00 0.00 33 1004.6
20260504180734 23 279 6.4 16.1 0.00 0.00 0.00 34 1004.8
20260504180235 23 173 4.8 14.5 0.00 0.00 0.00 34 1004.7
20260504175957 23 153 3.2 11.3 0.00 0.00 0.00 34 1004.7
20260504175235 23 205 3.2 11.3 0.00 0.00 0.00 33 1004.8
20260504174953 23 226 3.2 14.5 0.00 0.00 0.00 36 1004.9
20260504174235 23 293 3.2 14.5 0.00 0.00 0.00 40 1005.0
20260504173735 23 134 3.2 14.5 0.00 0.00 0.00 40 1005.1
20260504173236 23 173 3.2 14.5 0.00 0.00 0.00 36 1005.2
20260504172734 22 175 4.8 12.9 0.00 0.00 0.00 36 1005.3
20260504172454 22 222 4.8 16.1 0.00 0.00 0.00 34 1005.4
20260504171735 23 304 3.2 16.1 0.00 0.00 0.00 36 1005.3
20260504171457 22 252 1.6 8.0 0.00 0.00 0.00 37 1005.4
20260504170734 22 94 3.2 9.7 0.00 0.00 0.00 35 1005.4
20260504170454 22 6 1.6 9.7 0.00 0.00 0.00 35 1005.4
20260504160225 21 237 3.2 14.5 0.00 0.00 0.00 36 1006.3
20260504150721 19 69 1.6 8.0 0.00 0.00 0.00 43 1006.6
20260504150221 19 169 1.6 9.7 0.00 0.00 0.00 40 1006.6
20260504141217 17 208 3.2 11.3 0.00 0.00 0.00 46 1007.0
20260504140716 17 231 3.2 11.3 0.00 0.00 0.00 48 1007.0
20260504140216 16 204 3.2 9.7 0.00 0.00 0.00 49 1007.0
20260504130715 13 224 3.2 9.7 0.00 0.00 0.00 59 1007.3
20260504130214 13 234 3.2 9.7 0.00 0.00 0.00 59 1007.3
20260504120208 12 252 4.8 19.3 0.00 0.00 0.00 61 1007.9
20260504110104 10 223 1.6 4.8 0.00 0.00 0.00 68 1008.0
20260504081926 10 231 0.0 3.2 0.00 0.00 0.00 69 1008.2
20260504081648 10 260 0.0 3.2 0.00 0.00 0.00 70 1008.1
20260504080922 10 223 0.0 4.8 0.00 0.00 0.00 70 1008.1
20260504080422 10 229 0.0 4.8 0.00 0.00 0.00 71 1008.1
20260504070408 9 259 0.0 3.2 0.00 0.00 0.00 73 1008.3